When you browse on this site, cookies collect data to enhance your experience and personalize the content and advertising you see.
Visit our Privacy Policy to learn more. By continuing to use the site, you agree to this use of cookies and data.
  • în România
  • Lista ţărilor
  • Pe 7 zile
  • Temperatura apei
  • Hartă satelitară
  • Meteo pe hartă
  • Widget-uri
  • user-avatar
    Intrare

    Meteo pe oră la Koczanow

    Astăzi, 26 Iunie, Miercuri

    Timp Temperatura Precipitaţii Vânt Presiune Umiditate
    00:00 +21°C° 0 mm 2 m/s 746 mmHg 94%
    01:00 +22°C° 0 mm 1 m/s 746 mmHg 94%
    02:00 +22°C° 0 mm 1 m/s 746 mmHg 94%
    03:00 +21°C° 0 mm 1 m/s 746 mmHg 93%
    04:00 +21°C° 0 mm 1 m/s 746 mmHg 93%
    05:00 +23°C° 0 mm 1 m/s 746 mmHg 88%
    06:00 +24°C° 0 mm 1 m/s 746 mmHg 83%
    07:00 +26°C° 0 mm 1 m/s 746 mmHg 78%
    08:00 +27°C° 0 mm 1 m/s 746 mmHg 73%
    09:00 +29°C° 0 mm 1 m/s 746 mmHg 68%
    10:00 +31°C° 0 mm 1 m/s 746 mmHg 63%
    11:00 +31°C° 0 mm 1 m/s 745 mmHg 58%
    12:00 +32°C° 0 mm 2 m/s 745 mmHg 53%
    13:00 +34°C° 0 mm 2 m/s 745 mmHg 48%
    14:00 +34°C° 0 mm 2 m/s 744 mmHg 49%
    15:00 +34°C° 0 mm 2 m/s 744 mmHg 50%
    16:00 +34°C° 0 mm 3 m/s 743 mmHg 50%
    17:00 +33°C° 0 mm 3 m/s 743 mmHg 57%
    18:00 +30°C° 0 mm 3 m/s 743 mmHg 63%
    19:00 +28°C° 0 mm 3 m/s 742 mmHg 70%
    20:00 +27°C° 0 mm 3 m/s 742 mmHg 72%
    21:00 +26°C° 0 mm 4 m/s 742 mmHg 74%
    22:00 +25°C° 0 mm 4 m/s 742 mmHg 76%
    23:00 +25°C° 0 mm 4 m/s 742 mmHg 76%

    Mâine, 27 Iunie, Joi

    Timp Temperatura Precipitaţii Vânt Presiune Umiditate
    00:00 +25°C° 0 mm 4 m/s 741 mmHg 76%
    01:00 +25°C° 0 mm 5 m/s 741 mmHg 76%
    02:00 +25°C° 0.4 mm 5 m/s 741 mmHg 80%
    03:00 +23°C° 0.4 mm 5 m/s 741 mmHg 84%
    04:00 +22°C° 0.4 mm 5 m/s 740 mmHg 89%
    05:00 +22°C° 0.5 mm 5 m/s 740 mmHg 89%
    06:00 +22°C° 0.5 mm 5 m/s 740 mmHg 89%
    07:00 +22°C° 0.5 mm 5 m/s 741 mmHg 88%
    08:00 +23°C° 0 mm 6 m/s 741 mmHg 81%
    09:00 +23°C° 0 mm 7 m/s 741 mmHg 73%
    10:00 +24°C° 0 mm 8 m/s 741 mmHg 66%
    11:00 +24°C° 0 mm 8 m/s 741 mmHg 60%
    12:00 +24°C° 0 mm 8 m/s 740 mmHg 53%
    13:00 +24°C° 0 mm 8 m/s 740 mmHg 47%
    14:00 +24°C° 0 mm 8 m/s 740 mmHg 48%
    15:00 +23°C° 0 mm 7 m/s 740 mmHg 49%
    16:00 +23°C° 0 mm 7 m/s 740 mmHg 50%
    17:00 +22°C° 0 mm 6 m/s 740 mmHg 57%
    18:00 +20°C° 0 mm 5 m/s 740 mmHg 63%
    19:00 +19°C° 0 mm 4 m/s 740 mmHg 70%
    20:00 +18°C° 0 mm 4 m/s 740 mmHg 72%
    21:00 +17°C° 0 mm 4 m/s 740 mmHg 75%
    22:00 +16°C° 0 mm 3 m/s 741 mmHg 78%
    23:00 +16°C° 0 mm 3 m/s 741 mmHg 83%

    Poimâine, 28 Iunie, Vineri

    Timp Temperatura Precipitaţii Vânt Presiune Umiditate
    00:00 +14°C° 0 mm 3 m/s 741 mmHg 88%
    01:00 +14°C° 0 mm 3 m/s 741 mmHg 93%
    02:00 +13°C° 0 mm 3 m/s 741 mmHg 93%
    03:00 +13°C° 0 mm 3 m/s 741 mmHg 93%
    04:00 +13°C° 0 mm 3 m/s 741 mmHg 93%
    05:00 +14°C° 0 mm 3 m/s 741 mmHg 84%
    06:00 +16°C° 0 mm 3 m/s 742 mmHg 76%
    07:00 +16°C° 0 mm 3 m/s 742 mmHg 68%
    08:00 +18°C° 0 mm 3 m/s 742 mmHg 62%
    09:00 +19°C° 0 mm 4 m/s 742 mmHg 56%
    10:00 +20°C° 0 mm 4 m/s 742 mmHg 51%
    11:00 +20°C° 0 mm 4 m/s 742 mmHg 51%
    12:00 +21°C° 0 mm 5 m/s 742 mmHg 51%
    13:00 +21°C° 0 mm 5 m/s 742 mmHg 51%
    14:00 +21°C° 0 mm 4 m/s 741 mmHg 53%
    15:00 +21°C° 0 mm 4 m/s 741 mmHg 55%
    16:00 +22°C° 0 mm 3 m/s 741 mmHg 57%
    17:00 +20°C° 0.1 mm 3 m/s 741 mmHg 64%
    18:00 +19°C° 0.1 mm 3 m/s 741 mmHg 70%
    19:00 +18°C° 0.1 mm 3 m/s 741 mmHg 77%
    20:00 +17°C° 0 mm 2 m/s 742 mmHg 77%
    21:00 +15°C° 0 mm 2 m/s 742 mmHg 77%
    22:00 +14°C° 0 mm 2 m/s 742 mmHg 77%
    23:00 +13°C° 0 mm 2 m/s 742 mmHg 79%

    29 Iunie, Sâmbătă

    Timp Temperatura Precipitaţii Vânt Presiune Umiditate
    00:00 +11°C° 0 mm 3 m/s 743 mmHg 81%
    01:00 +11°C° 0 mm 3 m/s 743 mmHg 82%
    02:00 +10°C° 0 mm 3 m/s 743 mmHg 84%
    03:00 +9°C° 0 mm 3 m/s 743 mmHg 85%
    04:00 +8°C° 0 mm 2 m/s 743 mmHg 86%
    05:00 +10°C° 0 mm 3 m/s 743 mmHg 80%
    06:00 +12°C° 0 mm 3 m/s 743 mmHg 74%
    07:00 +14°C° 0 mm 3 m/s 743 mmHg 67%
    08:00 +17°C° 0 mm 3 m/s 744 mmHg 61%
    09:00 +18°C° 0 mm 4 m/s 744 mmHg 56%
    10:00 +20°C° 0 mm 4 m/s 744 mmHg 50%
    11:00 +21°C° 0 mm 4 m/s 744 mmHg 49%
    12:00 +21°C° 0 mm 4 m/s 743 mmHg 49%
    13:00 +22°C° 0 mm 4 m/s 743 mmHg 48%
    14:00 +22°C° 0 mm 4 m/s 743 mmHg 51%
    15:00 +22°C° 0 mm 3 m/s 743 mmHg 54%
    16:00 +22°C° 0 mm 3 m/s 743 mmHg 56%
    17:00 +21°C° 0 mm 2 m/s 742 mmHg 62%
    18:00 +20°C° 0 mm 2 m/s 742 mmHg 67%
    19:00 +20°C° 0 mm 1 m/s 742 mmHg 72%
    20:00 +19°C° 0 mm 1 m/s 743 mmHg 74%
    21:00 +18°C° 0 mm 1 m/s 743 mmHg 76%
    22:00 +16°C° 0 mm 1 m/s 743 mmHg 78%
    23:00 +16°C° 0 mm 1 m/s 743 mmHg 78%

    30 Iunie, Duminică

    Timp Temperatura Precipitaţii Vânt Presiune Umiditate
    00:00 +15°C° 0 mm 1 m/s 743 mmHg 78%
    01:00 +15°C° 0 mm 2 m/s 743 mmHg 78%
    02:00 +15°C° 0 mm 2 m/s 743 mmHg 78%
    03:00 +14°C° 0 mm 2 m/s 742 mmHg 79%
    04:00 +14°C° 0 mm 2 m/s 742 mmHg 79%
    05:00 +16°C° 0 mm 2 m/s 742 mmHg 74%
    06:00 +18°C° 0 mm 2 m/s 743 mmHg 69%
    07:00 +20°C° 0 mm 2 m/s 743 mmHg 64%
    08:00 +23°C° 0 mm 2 m/s 743 mmHg 59%
    09:00 +24°C° 0 mm 2 m/s 743 mmHg 53%
    10:00 +26°C° 0 mm 2 m/s 743 mmHg 48%
    11:00 +27°C° 0 mm 2 m/s 742 mmHg 46%
    12:00 +28°C° 0 mm 2 m/s 742 mmHg 44%
    13:00 +28°C° 0 mm 2 m/s 742 mmHg 43%
    14:00 +29°C° 0 mm 2 m/s 742 mmHg 44%
    15:00 +29°C° 0 mm 2 m/s 741 mmHg 45%
    16:00 +29°C° 0 mm 2 m/s 741 mmHg 46%
    17:00 +28°C° 0 mm 2 m/s 741 mmHg 53%
    18:00 +26°C° 0 mm 2 m/s 740 mmHg 59%
    19:00 +25°C° 0 mm 2 m/s 740 mmHg 66%
    20:00 +23°C° 0 mm 2 m/s 740 mmHg 69%
    21:00 +21°C° 0 mm 2 m/s 740 mmHg 72%
    22:00 +20°C° 0 mm 2 m/s 740 mmHg 75%
    23:00 +19°C° 0 mm 2 m/s 740 mmHg 78%

    1 Iulie, Luni

    Timp Temperatura Precipitaţii Vânt Presiune Umiditate
    00:00 +18°C° 0 mm 2 m/s 740 mmHg 80%
    01:00 +18°C° 0 mm 3 m/s 740 mmHg 83%
    02:00 +17°C° 0 mm 3 m/s 740 mmHg 84%
    03:00 +17°C° 0 mm 3 m/s 739 mmHg 84%
    04:00 +16°C° 0 mm 2 m/s 739 mmHg 84%
    05:00 +18°C° 0 mm 3 m/s 739 mmHg 78%
    06:00 +20°C° 0 mm 3 m/s 739 mmHg 72%
    07:00 +22°C° 0 mm 3 m/s 739 mmHg 67%
    08:00 +25°C° 0 mm 3 m/s 739 mmHg 63%
    09:00 +26°C° 0 mm 3 m/s 739 mmHg 59%
    10:00 +28°C° 0 mm 3 m/s 739 mmHg 55%
    11:00 +29°C° 0 mm 3 m/s 739 mmHg 55%
    12:00 +30°C° 0 mm 4 m/s 739 mmHg 55%
    13:00 +30°C° 0 mm 4 m/s 738 mmHg 55%
    14:00 +30°C° 0 mm 4 m/s 738 mmHg 54%
    15:00 +32°C° 0 mm 4 m/s 738 mmHg 54%
    16:00 +32°C° 0 mm 4 m/s 737 mmHg 54%
    17:00 +29°C° 0.4 mm 5 m/s 737 mmHg 60%
    18:00 +28°C° 0.4 mm 5 m/s 737 mmHg 66%
    19:00 +26°C° 0.4 mm 5 m/s 737 mmHg 73%
    20:00 +25°C° 0.1 mm 4 m/s 737 mmHg 77%
    21:00 +24°C° 0.1 mm 3 m/s 737 mmHg 81%
    22:00 +21°C° 0.1 mm 3 m/s 737 mmHg 85%
    23:00 +21°C° 3.1 mm 3 m/s 737 mmHg 88%
    Arată mai mult